Total_Precipitation_Accumulation
1.05 0.84 0.91 0.79 0.72 0.55 0.39 0.30 0.29 0.26 0.21 0.19 0.13 0.07 0.05 0.07 0.11 0.12 0.09 0.13 0.33 0.51 0.36 0.18 0.14 0.17 0.23 0.25 0.23 0.23 0.17 0.15 0.15 0.16 0.16 0.18 0.17 0.15 0.15 0.19 0.21 0.22 0.23
1.77 2.71 2.87 2.70 2.23 2.07 1.81 1.18 0.72 0.54 0.40 0.28 0.16 0.09 0.07 0.11 0.17 0.14 0.12 0.16 0.29 0.37 0.37 0.20 0.15 0.22 0.36 0.35 0.30 0.38 0.37 0.25 0.21 0.19 0.16 0.17 0.20 0.19 0.18 0.22 0.23 0.24 0.24
1.32 1.42 2.35 2.27 1.85 1.64 1.67 1.61 1.55 1.04 0.70 0.47 0.25 0.15 0.16 0.16 0.14 0.22 0.22 0.19 0.26 0.32 0.35 0.31 0.23 0.18 0.19 0.27 0.49 0.64 0.57 0.51 0.40 0.36 0.25 0.23 0.20 0.20 0.18 0.18 0.18 0.19 0.22
0.80 1.19 1.03 0.80 0.81 0.84 0.87 0.82 0.90 0.98 0.92 0.79 0.50 0.35 0.33 0.38 0.31 0.27 0.26 0.20 0.16 0.18 0.30 0.45 0.39 0.29 0.17 0.17 0.34 0.63 0.76 0.70 0.45 0.39 0.36 0.34 0.31 0.25 0.20 0.20 0.19 0.17 0.18
0.39 0.54 0.72 0.77 0.72 0.68 0.62 0.61 0.74 0.76 0.79 0.70 0.60 0.66 0.87 0.92 0.76 0.56 0.39 0.27 0.21 0.20 0.19 0.36 0.38 0.38 0.35 0.31 0.24 0.46 0.70 0.83 0.76 0.62 0.60 0.56 0.44 0.31 0.26 0.27 0.26 0.22 0.22
0.49 0.65 0.85 1.00 1.02 0.89 0.72 0.63 0.63 0.66 0.63 0.62 0.62 0.59 0.56 0.70 0.94 0.99 0.89 0.78 0.62 0.46 0.34 0.33 0.34 0.32 0.34 0.31 0.30 0.31 0.46 0.74 0.95 0.92 0.80 0.82 0.67 0.52 0.44 0.46 0.43 0.33 0.30
1.01 0.81 0.88 1.04 1.01 0.87 0.86 0.93 0.98 0.89 0.72 0.75 0.97 0.67 0.49 0.33 0.25 0.23 0.35 0.45 0.47 0.45 0.41 0.42 0.45 0.48 0.53 0.62 0.50 0.42 0.46 0.63 0.82 0.98 1.00 0.99 1.00 1.00 1.02 1.02 1.06 1.05 0.86
1.14 1.25 1.21 1.06 0.84 0.90 0.91 0.82 0.78 0.89 0.93 1.19 1.53 1.30 1.11 0.86 0.51 0.31 0.28 0.28 0.31 0.47 0.47 0.49 0.50 0.48 0.48 0.53 0.68 0.65 0.46 0.62 0.87 1.16 1.27 1.35 1.38 1.27 1.27 1.38 1.32 1.17 1.07
1.47 1.55 1.54 1.62 1.54 1.29 0.99 0.94 0.83 0.80 0.91 1.04 1.23 1.66 1.31 0.95 0.84 0.79 0.65 0.60 0.54 0.64 0.67 0.82 0.90 0.67 0.55 0.58 0.69 0.72 0.64 0.54 0.70 0.97 1.26 1.33 1.49 1.60 1.79 1.95 2.00 1.87 1.99
1.98 2.36 2.56 2.47 2.29 1.91 1.80 1.86 1.83 1.64 1.65 1.41 1.43 1.38 1.24 0.98 0.93 1.00 0.91 0.88 0.94 1.46 1.75 1.59 1.39 1.51 1.45 1.14 1.09 1.14 1.25 1.21 0.98 1.14 1.53 1.92 2.24 2.55 2.60 2.53 2.35 2.07 2.14
2.15 2.10 2.43 2.95 3.03 3.15 2.76 2.39 2.38 2.35 2.27 2.27 2.05 1.88 1.72 1.64 1.64 1.44 1.09 1.09 1.16 1.45 1.18 1.10 1.13 1.10 1.40 1.72 1.82 1.51 1.07 0.96 1.19 1.36 1.61 2.22 2.52 2.90 3.72 4.17 3.27 3.27 3.22
2.21 2.03 2.49 2.78 3.08 2.80 2.59 2.72 2.64 2.37 2.22 1.92 1.85 1.83 1.69 1.51 1.35 1.39 1.10 0.71 0.67 0.86 0.87 0.76 0.75 0.83 0.95 1.00 1.17 1.25 1.30 1.18 0.91 0.99 1.26 1.52 1.58 1.72 2.12 3.30 4.11 4.06 3.89
2.05 2.08 1.66 2.02 2.24 2.43 2.65 2.35 2.21 2.09 2.08 2.25 2.08 1.91 1.96 1.83 1.66 1.48 1.45 1.11 0.81 0.73 0.98 1.04 0.92 0.89 0.93 1.01 0.96 1.01 0.90 1.09 1.29 1.23 1.20 1.17 1.19 1.28 1.37 1.73 2.23 3.09 4.16
1.42 1.44 1.51 1.37 1.38 1.54 1.78 1.88 1.73 1.57 1.50 1.52 1.52 1.57 1.65 1.61 1.51 1.52 1.76 1.86 1.66 1.03 0.73 0.81 0.92 0.90 0.96 0.96 1.13 1.33 1.05 1.16 1.14 1.23 1.31 1.43 1.48 1.39 1.40 1.49 1.73 2.19 2.22
1.16 1.22 1.33 1.41 1.40 1.46 1.54 1.58 1.53 1.38 1.29 1.11 1.05 1.08 1.17 1.15 1.16 1.22 1.34 1.51 1.74 1.55 1.01 0.73 0.76 0.79 0.81 0.95 1.20 1.25 1.25 1.45 1.30 1.19 1.17 1.21 1.30 1.22 1.14 1.13 1.24 1.29 1.32
1.07 1.45 1.33 1.06 1.08 1.15 1.37 1.71 1.68 1.49 1.42 1.36 1.29 1.25 1.19 1.14 1.13 1.08 1.11 1.22 1.44 1.62 1.50 0.84 0.82 0.89 0.95 1.03 1.16 1.01 0.92 1.16 1.03 0.95 0.93 0.93 0.87 0.82 0.82 0.84 0.89 0.88 0.94
1.09 1.18 1.36 1.45 1.31 1.17 1.14 1.23 1.21 1.28 1.54 1.61 1.60 1.52 1.37 1.39 1.68 1.77 1.72 1.74 1.93 2.18 2.31 1.58 1.10 0.99 0.94 0.87 0.91 0.87 0.83 0.68 0.65 0.82 0.69 0.66 0.63 0.58 0.61 0.62 0.61 0.63 0.64
0.55 0.63 0.55 0.58 0.58 0.77 0.87 0.82 0.85 0.96 1.05 1.09 1.19 1.36 1.26 1.21 1.23 1.23 1.32 1.41 1.46 1.55 1.79 1.60 1.18 1.13 1.09 1.03 1.02 1.02 0.95 0.87 0.79 0.97 0.82 0.59 0.42 0.33 0.33 0.35 0.42 0.47 0.51
0.46 0.54 0.56 0.51 0.47 0.43 0.47 0.45 0.40 0.49 0.65 0.82 0.95 1.01 0.98 1.09 1.15 1.22 1.34 1.45 1.50 1.61 1.77 1.76 1.40 1.18 1.09 1.04 1.08 1.04 0.98 0.93 0.85 1.00 0.85 0.69 0.67 0.60 0.52 0.51 0.48 0.42 0.34
0.54 0.47 0.50 0.46 0.46 0.47 0.44 0.53 0.62 0.52 0.47 0.46 0.51 0.64 0.77 0.99 1.14 1.30 1.39 1.35 1.38 1.46 1.40 1.38 1.20 0.92 0.72 0.63 0.73 0.66 0.59 0.52 0.50 0.56 0.62 0.54 0.56 0.54 0.52 0.49 0.46 0.45 0.42
0.57 0.63 0.59 0.69 0.60 0.52 0.57 0.63 0.66 0.66 0.55 0.51 0.53 0.52 0.52 0.70 0.86 0.89 1.00 1.06 1.17 1.34 1.45 1.44 1.16 0.90 0.65 0.47 0.40 0.36 0.41 0.35 0.36 0.34 0.32 0.32 0.32 0.26 0.23 0.26 0.25 0.33 0.41
0.89 0.84 0.76 0.61 0.69 0.76 1.16 0.98 0.90 0.88 0.86 0.77 0.64 0.65 0.78 0.90 0.71 0.67 0.62 0.58 0.57 0.69 0.89 0.98 0.99 0.86 0.70 0.63 0.67 0.72 0.73 0.68 0.53 0.20 0.17 0.13 0.12 0.11 0.13 0.19 0.30 0.34 0.33
1.16 1.01 0.95 0.97 0.86 0.83 1.15 1.07 1.05 1.00 1.04 0.96 0.99 0.88 0.66 0.60 0.54 0.37 0.39 0.45 0.46 0.43 0.43 0.42 0.41 0.31 0.32 0.38 0.59 0.72 0.70 0.62 0.47 0.25 0.36 0.34 0.16 0.08 0.04 0.12 0.23 0.23 0.32
1.17 1.28 1.23 1.25 1.36 1.49 1.47 1.24 1.20 1.01 1.01 0.93 0.82 0.82 0.70 0.59 0.45 0.26 0.25 0.28 0.18 0.14 0.17 0.24 0.27 0.34 0.47 0.53 0.72 0.93 0.84 0.75 0.61 0.42 0.42 0.48 0.15 0.12 0.06 0.05 0.12 0.10 0.17
1.36 1.47 1.30 1.16 1.22 1.36 1.29 0.97 0.91 0.88 0.81 0.68 0.50 0.38 0.43 0.40 0.44 0.38 0.27 0.17 0.11 0.09 0.18 0.25 0.32 0.39 0.46 0.55 0.62 0.85 1.00 1.09 0.96 0.47 0.36 0.49 0.24 0.20 0.16 0.11 0.10 0.12 0.08
1.07 1.04 1.13 1.20 1.28 1.02 1.02 0.80 0.58 0.50 0.58 0.54 0.50 0.42 0.46 0.42 0.37 0.36 0.25 0.19 0.20 0.09 0.15 0.15 0.13 0.15 0.20 0.31 0.46 0.56 0.60 1.08 0.92 0.90 0.41 0.70 0.45 0.49 0.84 0.28 0.16 0.16 0.13